KO4WIL-13 Weather Reports


time (UTC)temp
C
wind
direction
speed
KPH
gust
KPH
rain 1hr
cm
rain 24hr
cm
rain mn
cm
humidity
%
barometer
mb
20260509022344 13 228 0.0 0.0 0.00 0.00 0.00 56 965.2
20260509021842 13 221 0.0 0.0 0.00 0.00 0.00 56 965.1
20260509021340 13 231 0.0 0.0 0.00 0.00 0.00 56 965.2
20260509020838 13 231 0.0 0.0 0.00 0.00 0.00 56 965.2
20260509020337 13 223 0.0 0.0 0.00 0.00 0.00 55 965.2
20260509015834 13 226 0.0 1.6 0.00 0.00 0.00 55 965.1
20260509015332 14 227 0.0 1.6 0.00 0.00 0.00 55 965.1
20260509014730 14 226 0.0 0.0 0.00 0.00 0.00 51 965.1
20260509014228 14 235 0.0 0.0 0.00 0.00 0.00 50 965.0
20260509013726 14 237 0.0 0.0 0.00 0.00 0.00 50 964.9
20260509013223 14 233 0.0 0.0 0.00 0.00 0.00 50 965.0
20260509012721 14 230 0.0 0.0 0.00 0.00 0.00 50 964.9
20260509012219 14 234 0.0 0.0 0.00 0.00 0.00 50 964.8
20260509011718 14 237 0.0 0.0 0.00 0.00 0.00 50 964.8
20260509011216 14 241 0.0 0.0 0.00 0.00 0.00 51 964.9
20260509010714 14 233 0.0 0.0 0.00 0.00 0.00 52 965.0
20260509010212 14 25 0.0 0.0 0.00 0.00 0.00 52 965.0
20260509005710 15 44 0.0 0.0 0.00 0.00 0.00 53 965.1
20260509005208 15 15 0.0 0.0 0.00 0.00 0.00 50 965.0
20260509004706 15 267 0.0 0.0 0.00 0.00 0.00 47 964.9
20260509004204 15 285 0.0 0.0 0.00 0.00 0.00 47 964.8
20260509003701 16 345 0.0 0.0 0.00 0.00 0.00 48 964.8
20260509003159 16 285 0.0 0.0 0.00 0.00 0.00 46 964.7
20260509002658 16 299 0.0 0.0 0.00 0.00 0.00 46 964.8
20260509002155 16 286 0.0 0.0 0.00 0.00 0.00 47 964.8
20260509001653 17 276 0.0 0.0 0.00 0.00 0.00 45 964.8
20260509001151 17 286 0.0 0.0 0.00 0.00 0.00 45 964.8
20260509000649 18 280 0.0 0.0 0.00 0.00 0.00 45 964.9
20260509000147 18 247 0.0 0.0 0.00 0.00 0.00 43 965.0
20260508235645 19 274 0.0 0.0 0.00 0.00 0.00 41 965.0
20260508235143 20 277 0.0 0.0 0.00 0.00 0.00 39 964.9
20260508234641 20 290 0.0 0.0 0.00 0.00 0.00 38 964.8
20260508234139 20 265 0.0 0.0 0.00 0.00 0.00 39 964.8
20260508233637 20 233 0.0 0.0 0.00 0.00 0.00 38 964.8
20260508233135 20 239 0.0 1.6 0.00 0.00 0.00 37 964.8
20260508232633 20 244 1.6 1.6 0.00 0.00 0.00 36 964.8
20260508232131 20 243 1.6 1.6 0.00 0.00 0.00 35 964.8
20260508231630 20 237 1.6 1.6 0.00 0.00 0.00 37 964.8
20260508231127 20 236 1.6 1.6 0.00 0.00 0.00 36 964.8
20260508230625 20 247 1.6 3.2 0.00 0.00 0.00 34 964.8
20260508230123 20 252 1.6 1.6 0.00 0.00 0.00 36 964.8
20260508225621 20 240 1.6 3.2 0.00 0.00 0.00 35 964.9
20260508225119 20 288 0.0 1.6 0.00 0.00 0.00 35 964.9
20260508224617 20 269 1.6 1.6 0.00 0.00 0.00 35 965.0
20260508224115 20 212 1.6 3.2 0.00 0.00 0.00 34 965.0
20260508223613 20 226 1.6 3.2 0.00 0.00 0.00 35 965.1
20260508223111 20 254 1.6 1.6 0.00 0.00 0.00 35 965.1
20260508222609 20 265 1.6 1.6 0.00 0.00 0.00 35 965.1
20260508222107 20 238 1.6 3.2 0.00 0.00 0.00 36 965.1
20260508221605 20 233 3.2 4.8 0.00 0.00 0.00 34 965.1
20260508221103 20 219 1.6 1.6 0.00 0.00 0.00 35 965.2
20260508220601 20 206 1.6 1.6 0.00 0.00 0.00 35 965.1
20260508220059 20 236 1.6 3.2 0.00 0.00 0.00 34 965.1
20260508215557 20 240 3.2 4.8 0.00 0.00 0.00 34 965.1
20260508215054 20 253 1.6 3.2 0.00 0.00 0.00 34 965.1
20260508214552 20 209 1.6 3.2 0.00 0.00 0.00 34 965.2
20260508214051 20 223 1.6 1.6 0.00 0.00 0.00 35 965.2
20260508213548 20 224 0.0 1.6 0.00 0.00 0.00 33 965.2
20260508213046 20 223 1.6 3.2 0.00 0.00 0.00 34 965.2
20260508212544 19 220 3.2 3.2 0.00 0.00 0.00 33 965.1
20260508212042 19 228 1.6 1.6 0.00 0.00 0.00 33 965.0
20260508211540 19 234 1.6 3.2 0.00 0.00 0.00 33 965.1
20260508211039 19 260 0.0 1.6 0.00 0.00 0.00 37 965.2
20260508210536 19 241 1.6 3.2 0.00 0.00 0.00 36 965.1
20260508210034 19 221 1.6 3.2 0.00 0.00 0.00 39 965.2
20260508205531 19 152 1.6 1.6 0.00 0.00 0.00 39 965.2
20260508205029 19 167 1.6 3.2 0.00 0.00 0.00 37 965.2
20260508204527 20 252 1.6 1.6 0.00 0.00 0.00 37 965.2
20260508204025 19 200 0.0 0.0 0.00 0.00 0.00 40 965.3
20260508203523 19 152 1.6 1.6 0.00 0.00 0.00 38 965.4
20260508203021 19 239 3.2 3.2 0.00 0.00 0.00 35 965.5
20260508202518 19 214 1.6 1.6 0.00 0.00 0.00 40 965.4
20260508202016 19 234 1.6 3.2 0.00 0.00 0.00 37 965.5
20260508201513 19 230 3.2 4.8 0.00 0.00 0.00 40 965.6
20260508201011 19 239 0.0 1.6 0.00 0.00 0.00 39 965.7
20260508200509 19 209 1.6 3.2 0.00 0.00 0.00 40 965.8
20260508200007 19 166 1.6 3.2 0.00 0.00 0.00 40 965.9
20260508195505 18 191 1.6 1.6 0.00 0.00 0.00 43 966.0
20260508195003 18 190 1.6 3.2 0.00 0.00 0.00 39 966.1
20260508194501 18 194 1.6 1.6 0.00 0.00 0.00 38 966.3
20260508193959 18 248 3.2 3.2 0.00 0.00 0.00 38 966.6
20260508193457 18 305 0.0 1.6 0.00 0.00 0.00 40 966.8
20260508192956 18 213 1.6 3.2 0.00 0.00 0.00 38 966.9
20260508192453 18 162 1.6 3.2 0.00 0.00 0.00 40 967.0
20260508191951 18 131 0.0 0.0 0.00 0.00 0.00 41 967.1
20260508191449 18 169 0.0 1.6 0.00 0.00 0.00 43 967.1
20260508190948 18 225 1.6 1.6 0.00 0.00 0.00 40 967.1
20260508190446 18 232 1.6 3.2 0.00 0.00 0.00 42 967.2
20260508185944 18 216 3.2 6.4 0.00 0.00 0.00 38 967.1
20260508185442 18 229 3.2 4.8 0.00 0.00 0.00 39 967.1
20260508184940 17 234 1.6 3.2 0.00 0.00 0.00 45 967.3
20260508184438 17 126 3.2 3.2 0.00 0.00 0.00 42 967.2
20260508183936 17 122 1.6 1.6 0.00 0.00 0.00 45 967.4
20260508183434 17 154 1.6 3.2 0.00 0.00 0.00 42 967.5
20260508182931 17 157 1.6 3.2 0.00 0.00 0.00 43 967.5
20260508182429 17 231 0.0 1.6 0.00 0.00 0.00 37 967.6
20260508181927 17 222 1.6 1.6 0.00 0.00 0.00 43 967.7
20260508181423 17 128 0.0 1.6 0.00 0.00 0.00 42 967.6
20260508180921 17 99 1.6 1.6 0.00 0.00 0.00 43 967.6
20260508180419 17 56 1.6 3.2 0.00 0.00 0.00 41 967.6
20260508175917 17 69 1.6 1.6 0.00 0.00 0.00 43 967.7
20260508175415 17 90 1.6 3.2 0.00 0.00 0.00 42 967.8
20260508174913 17 116 0.0 1.6 0.00 0.00 0.00 45 967.9
20260508174411 17 164 0.0 0.0 0.00 0.00 0.00 37 967.9
20260508173909 17 135 0.0 1.6 0.00 0.00 0.00 38 968.0
20260508173407 17 121 0.0 1.6 0.00 0.00 0.00 39 968.1
20260508172905 16 171 1.6 1.6 0.00 0.00 0.00 40 968.1
20260508172403 16 214 1.6 1.6 0.00 0.00 0.00 37 968.1
20260508171901 16 160 1.6 3.2 0.00 0.00 0.00 41 968.3
20260508171359 16 234 0.0 1.6 0.00 0.00 0.00 40 968.4
20260508170857 16 199 1.6 1.6 0.00 0.00 0.00 37 968.4
20260508170355 17 217 1.6 3.2 0.00 0.00 0.00 40 968.5
20260508165853 16 166 0.0 1.6 0.00 0.00 0.00 41 968.6
20260508165351 16 91 1.6 3.2 0.00 0.00 0.00 42 968.8
20260508164849 16 122 1.6 3.2 0.00 0.00 0.00 47 969.0
20260508164347 16 103 0.0 0.0 0.00 0.00 0.00 50 969.1
20260508163845 16 116 1.6 3.2 0.00 0.00 0.00 45 969.1
20260508163343 16 255 0.0 1.6 0.00 0.00 0.00 45 969.2
20260508162841 16 189 1.6 3.2 0.00 0.00 0.00 44 969.2
20260508162339 16 154 1.6 3.2 0.00 0.00 0.00 45 969.3
20260508161837 16 120 1.6 1.6 0.00 0.00 0.00 41 969.3
20260508161335 15 140 1.6 3.2 0.00 0.00 0.00 42 969.4
20260508160833 15 153 1.6 4.8 0.00 0.00 0.00 41 969.4
20260508160331 15 96 0.0 1.6 0.00 0.00 0.00 43 969.5
20260508155829 16 73 0.0 1.6 0.00 0.00 0.00 43 969.5
20260508155327 16 103 0.0 1.6 0.00 0.00 0.00 47 969.5
20260508154825 15 175 1.6 3.2 0.00 0.00 0.00 48 969.6
20260508154323 15 183 1.6 1.6 0.00 0.00 0.00 45 969.6
20260508153821 15 178 0.0 1.6 0.00 0.00 0.00 48 969.7
20260508153319 15 297 0.0 1.6 0.00 0.00 0.00 43 969.8
20260508152817 15 312 0.0 0.0 0.00 0.00 0.00 45 969.9
20260508152315 15 312 0.0 0.0 0.00 0.00 0.00 44 970.0
20260508151812 15 305 0.0 3.2 0.00 0.00 0.00 46 970.0
20260508150808 15 127 1.6 3.2 0.00 0.00 0.00 49 970.0
20260508150306 15 87 1.6 3.2 0.00 0.00 0.00 50 970.0
20260508145803 14 297 0.0 1.6 0.00 0.00 0.00 49 970.0
20260508145302 14 255 0.0 3.2 0.00 0.00 0.00 47 970.0
20260508144759 14 164 1.6 1.6 0.00 0.00 0.00 43 970.0
20260508144258 14 111 1.6 4.8 0.00 0.00 0.00 48 970.0
20260508143756 14 116 1.6 3.2 0.00 0.00 0.00 49 970.0
20260508143253 14 110 1.6 3.2 0.00 0.00 0.00 57 970.1
20260508142751 13 276 0.0 0.0 0.00 0.00 0.00 57 970.1
20260508141719 13 123 3.2 3.2 0.00 0.00 0.00 58 970.1
20260508141217 13 41 0.0 0.0 0.00 0.00 0.00 60 970.1
20260508140714 14 41 1.6 3.2 0.00 0.00 0.00 61 970.0
20260508140212 13 282 0.0 0.0 0.00 0.00 0.00 62 970.1
20260508135709 13 114 1.6 3.2 0.00 0.00 0.00 63 970.0
20260508135207 13 112 1.6 4.8 0.00 0.00 0.00 62 970.1
20260508134705 13 82 1.6 3.2 0.00 0.00 0.00 62 970.0
20260508134203 13 87 1.6 1.6 0.00 0.00 0.00 62 970.0
20260508133701 14 130 1.6 3.2 0.00 0.00 0.00 59 970.0
20260508133159 14 184 0.0 1.6 0.00 0.00 0.00 62 969.9
20260508132657 14 98 0.0 0.0 0.00 0.00 0.00 62 969.9
20260508132154 13 48 1.6 3.2 0.00 0.00 0.00 60 969.9
20260508131652 13 208 0.0 1.6 0.00 0.00 0.00 61 969.8
20260508131150 13 67 0.0 1.6 0.00 0.00 0.00 63 969.7
20260508130648 13 63 1.6 1.6 0.00 0.00 0.00 60 969.7
20260508130146 12 93 1.6 1.6 0.00 0.00 0.00 65 969.7
20260508125644 12 76 1.6 1.6 0.00 0.00 0.00 61 969.6
20260508125142 12 75 1.6 1.6 0.00 0.00 0.00 62 969.6
20260508124640 12 75 1.6 1.6 0.00 0.00 0.00 60 969.6
20260508124137 12 76 1.6 1.6 0.00 0.00 0.00 61 969.7
20260508123635 12 74 1.6 1.6 0.00 0.00 0.00 59 969.6
20260508123133 12 73 1.6 1.6 0.00 0.00 0.00 64 969.6
20260508122631 12 80 1.6 1.6 0.00 0.00 0.00 65 969.5
20260508122130 12 76 1.6 1.6 0.00 0.00 0.00 68 969.5
20260508121627 12 75 1.6 1.6 0.00 0.00 0.00 67 969.5
20260508121125 12 66 1.6 1.6 0.00 0.00 0.00 66 969.4
20260508120623 12 61 1.6 1.6 0.00 0.00 0.00 69 969.3
20260508120120 12 76 1.6 1.6 0.00 0.00 0.00 66 969.2
20260508115619 12 60 1.6 1.6 0.00 0.00 0.00 61 969.1
20260508115116 12 54 0.0 1.6 0.00 0.00 0.00 59 969.1
20260508114614 11 49 0.0 0.0 0.00 0.00 0.00 59 969.0
20260508114112 11 45 0.0 0.0 0.00 0.00 0.00 64 969.0
20260508113610 10 46 0.0 0.0 0.00 0.00 0.00 66 969.0
20260508113109 9 47 0.0 0.0 0.00 0.00 0.00 68 968.8
20260508112606 8 44 0.0 0.0 0.00 0.00 0.00 68 968.8
20260508112104 8 44 0.0 0.0 0.00 0.00 0.00 70 968.7
20260508111602 8 45 0.0 0.0 0.00 0.00 0.00 70 968.6
20260508111059 8 45 0.0 0.0 0.00 0.00 0.00 69 968.6
20260508110557 8 45 0.0 0.0 0.00 0.00 0.00 68 968.6
20260508110055 7 45 0.0 0.0 0.00 0.00 0.00 66 968.5
20260508105553 7 44 0.0 0.0 0.00 0.00 0.00 66 968.4
20260508105051 7 44 0.0 0.0 0.00 0.00 0.00 67 968.4
20260508104549 7 44 0.0 0.0 0.00 0.00 0.00 67 968.3
20260508104047 7 43 0.0 0.0 0.00 0.00 0.00 68 968.2
20260508103545 7 43 0.0 0.0 0.00 0.00 0.00 69 968.2
20260508103043 7 43 0.0 0.0 0.00 0.00 0.00 69 968.2
20260508102541 7 44 0.0 0.0 0.00 0.00 0.00 71 968.2
20260508102039 7 44 0.0 0.0 0.00 0.00 0.00 74 968.2
20260508101536 7 45 0.0 0.0 0.00 0.00 0.00 73 968.1
20260508101035 7 44 0.0 0.0 0.00 0.00 0.00 76 968.1
20260508100533 7 44 0.0 0.0 0.00 0.00 0.00 74 968.1
20260508100030 7 45 0.0 0.0 0.00 0.00 0.00 72 968.0
20260508095528 7 43 0.0 0.0 0.00 0.00 0.00 74 968.0
20260508095026 7 44 0.0 0.0 0.00 0.00 0.00 71 968.0
20260508094524 7 43 0.0 0.0 0.00 0.00 0.00 68 967.9
20260508094022 7 43 0.0 0.0 0.00 0.00 0.00 71 967.9
20260508093519 6 45 0.0 0.0 0.00 0.00 0.00 73 968.0
20260508093017 6 44 0.0 0.0 0.00 0.00 0.00 75 967.9
20260508092515 7 44 0.0 0.0 0.00 0.00 0.00 75 968.0
20260508092013 7 42 0.0 0.0 0.00 0.00 0.00 72 967.9
20260508091511 7 43 0.0 0.0 0.00 0.00 0.00 72 967.9
20260508091009 8 42 0.0 0.0 0.00 0.00 0.00 72 967.9
20260508090507 8 43 0.0 0.0 0.00 0.00 0.00 69 967.8
20260508090006 8 43 0.0 0.0 0.00 0.00 0.00 64 967.7
20260508085503 8 43 0.0 0.0 0.00 0.00 0.00 65 967.7
20260508085001 8 41 0.0 0.0 0.00 0.00 0.00 65 967.7
20260508084459 8 41 0.0 0.0 0.00 0.00 0.00 66 967.7
20260508083957 8 44 0.0 1.6 0.00 0.00 0.00 66 967.7
20260508083455 8 44 0.0 0.0 0.00 0.00 0.00 69 967.8
20260508082953 8 43 0.0 0.0 0.00 0.00 0.00 71 967.8
20260508082451 8 44 0.0 0.0 0.00 0.00 0.00 69 967.7
20260508081949 8 44 0.0 0.0 0.00 0.00 0.00 67 967.6
20260508081447 8 43 0.0 0.0 0.00 0.00 0.00 68 967.6
20260508080945 8 43 0.0 0.0 0.00 0.00 0.00 66 967.7
20260508080443 8 44 0.0 0.0 0.00 0.00 0.00 67 967.7
20260508075941 8 42 0.0 0.0 0.00 0.00 0.00 68 967.7
20260508075439 8 44 0.0 0.0 0.00 0.00 0.00 73 967.8
20260508074937 8 45 0.0 0.0 0.00 0.00 0.00 74 967.9
20260508074435 8 44 0.0 0.0 0.00 0.00 0.00 72 967.9
20260508073933 8 44 0.0 0.0 0.00 0.00 0.00 67 967.8
20260508073431 8 44 0.0 0.0 0.00 0.00 0.00 69 967.8
20260508072929 8 42 0.0 0.0 0.00 0.00 0.00 70 967.9
20260508072427 7 42 0.0 0.0 0.00 0.00 0.00 73 967.9
20260508071924 7 44 0.0 0.0 0.00 0.00 0.00 74 967.9
20260508071422 8 43 0.0 0.0 0.00 0.00 0.00 76 967.9
20260508070921 8 41 0.0 0.0 0.00 0.00 0.00 73 968.0
20260508070419 8 44 0.0 0.0 0.00 0.00 0.00 71 968.0
20260508065917 9 38 0.0 0.0 0.00 0.00 0.00 68 967.9
20260508065415 9 39 0.0 0.0 0.00 0.00 0.00 68 967.9
20260508064912 9 42 0.0 0.0 0.00 0.00 0.00 67 967.9
20260508064411 9 274 0.0 0.0 0.00 0.00 0.00 67 967.8
20260508063908 9 296 0.0 0.0 0.00 0.00 0.00 67 967.8
20260508063406 9 45 0.0 0.0 0.00 0.00 0.00 68 967.8
20260508062904 9 37 0.0 0.0 0.00 0.00 0.00 67 967.9
20260508062402 9 39 0.0 0.0 0.00 0.00 0.00 67 968.0
20260508061900 9 33 0.0 0.0 0.00 0.00 0.00 67 968.0
20260508061358 9 41 0.0 0.0 0.00 0.00 0.00 69 968.1
20260508060856 9 40 0.0 0.0 0.00 0.00 0.00 71 968.1
20260508060354 9 44 0.0 0.0 0.00 0.00 0.00 70 968.1
20260508055852 9 44 0.0 0.0 0.00 0.00 0.00 69 968.1
20260508055350 9 44 0.0 0.0 0.00 0.00 0.00 69 968.1
20260508054848 8 43 0.0 0.0 0.00 0.00 0.00 70 968.0
20260508054345 8 65 0.0 1.6 0.00 0.00 0.00 71 968.1
20260508053844 9 64 0.0 0.0 0.00 0.00 0.00 72 968.2
20260508053341 9 58 0.0 1.6 0.00 0.00 0.00 71 968.1
20260508052840 9 53 0.0 1.6 0.00 0.00 0.00 70 968.2
20260508052337 9 52 0.0 1.6 0.00 0.00 0.00 68 968.2
20260508051836 10 42 0.0 0.0 0.00 0.00 0.00 68 968.2
20260508051333 10 42 0.0 0.0 0.00 0.00 0.00 69 968.1
20260508050831 10 38 0.0 0.0 0.00 0.00 0.00 69 968.1
20260508050329 10 44 0.0 0.0 0.00 0.00 0.00 69 968.1
20260508045827 10 43 0.0 0.0 0.00 0.00 0.00 69 968.1
20260508045325 10 43 0.0 0.0 0.00 0.00 0.00 68 968.0
20260508044823 10 41 0.0 0.0 0.00 0.00 0.00 70 968.0
20260508044321 10 43 0.0 0.0 0.00 0.00 0.00 66 967.9
20260508043819 10 45 0.0 0.0 0.00 0.00 0.00 66 967.9
20260508043317 10 45 0.0 0.0 0.00 0.00 0.00 66 967.9
20260508042815 10 44 0.0 0.0 0.00 0.00 0.00 65 967.8
20260508042313 11 43 0.0 0.0 0.00 0.00 0.00 66 967.8
20260508041811 11 40 0.0 0.0 0.00 0.00 0.00 65 967.7
20260508041309 11 41 0.0 0.0 0.00 0.00 0.00 64 967.6
20260508040807 11 44 0.0 1.6 0.00 0.00 0.00 63 967.6
20260508040305 11 42 0.0 0.0 0.00 0.00 0.00 63 967.6
20260508035803 11 37 0.0 0.0 0.00 0.00 0.00 62 967.6
20260508035300 11 41 0.0 0.0 0.00 0.00 0.00 62 967.5
20260508034759 12 27 0.0 0.0 0.00 0.00 0.00 61 967.6
20260508034256 12 38 0.0 0.0 0.00 0.00 0.00 61 967.5
20260508033754 12 34 0.0 0.0 0.00 0.00 0.00 60 967.5
20260508033252 12 28 0.0 0.0 0.00 0.00 0.00 60 967.5
20260508032750 12 6 0.0 0.0 0.00 0.00 0.00 60 967.5
20260508032248 12 333 0.0 1.6 0.00 0.00 0.00 60 967.5
20260508031746 12 35 0.0 0.0 0.00 0.00 0.00 59 967.3
20260508031244 12 19 0.0 0.0 0.00 0.00 0.00 59 967.3
20260508030742 12 37 0.0 0.0 0.00 0.00 0.00 59 967.3
20260508030240 12 36 1.6 3.2 0.00 0.00 0.00 58 967.4
20260508025738 12 33 0.0 1.6 0.00 0.00 0.00 59 967.5
20260508025236 12 33 0.0 1.6 0.00 0.00 0.00 59 967.6
20260508024733 13 42 0.0 1.6 0.00 0.00 0.00 58 967.4
20260508024231 13 10 0.0 1.6 0.00 0.00 0.00 58 967.4
20260508023729 13 9 0.0 1.6 0.00 0.00 0.00 57 967.3
20260508023227 13 336 1.6 1.6 0.00 0.00 0.00 57 967.3
20260508022724 13 15 0.0 1.6 0.00 0.00 0.00 57 967.3